Location: Proctor
(47.8934°N, 114.3048°W)
Time: 10:50:23
(UTC+00:00)

AO-91 - Pass Details

Date: 06 July 2022
Orbit: 450 x 797 km, 97.7° (Epoch: 09 August)

Event Time Altitude Azimuth Distance (km) Brightness Sun altitude
Rises 07:17:07 0° 2° (N) 2,492 ? -19.2°
Reaches altitude 10° 07:19:23 10° 349° (N) 1,598 ? -19.2°
Maximum altitude 07:22:12 25° 292° (WNW) 955 ? -19.3°
Enters shadow 07:23:36 19° 255° (WSW) 1,147 ? -19.3°
